TimeAKST,TemperatureF,Dew PointF,Humidity,Sea Level PressureIn,VisibilityMPH,Wind Direction,Wind SpeedMPH,Gust SpeedMPH,PrecipitationIn,Events,Conditions,WindDirDegrees,DateUTC
12:16 AM,30.2,28.4,93,29.56,10.0,Calm,Calm,-,N/A,,Overcast,0,2013-01-04 09:16:00
12:36 AM,30.2,26.6,86,29.56,10.0,Calm,Calm,-,N/A,,Mostly Cloudy,0,2013-01-04 09:36:00
12:56 AM,30.2,28.4,93,29.57,10.0,Calm,Calm,-,N/A,,Overcast,0,2013-01-04 09:56:00
1:16 AM,30.2,26.6,86,29.57,10.0,Calm,Calm,-,N/A,,Overcast,0,2013-01-04 10:16:00
1:36 AM,28.4,26.6,93,29.57,10.0,Calm,Calm,-,N/A,,Overcast,0,2013-01-04 10:36:00
1:56 AM,28.4,26.6,93,29.58,10.0,Calm,Calm,-,N/A,,Overcast,0,2013-01-04 10:56:00
2:16 AM,28.4,26.6,93,29.59,10.0,Calm,Calm,-,N/A,,Overcast,0,2013-01-04 11:16:00
2:56 AM,28.4,26.6,93,29.60,10.0,Calm,Calm,-,N/A,,Overcast,0,2013-01-04 11:56:00
3:36 AM,28.4,26.6,93,29.61,10.0,Calm,Calm,-,N/A,,Overcast,0,2013-01-04 12:36:00
4:16 AM,28.4,26.6,93,29.62,10.0,Calm,Calm,-,N/A,,Overcast,0,2013-01-04 13:16:00
4:36 AM,28.4,26.6,93,29.63,10.0,Calm,Calm,-,N/A,,Overcast,0,2013-01-04 13:36:00
4:56 AM,28.4,26.6,93,29.63,10.0,Calm,Calm,-,N/A,,Overcast,0,2013-01-04 13:56:00
5:16 AM,28.4,26.6,93,29.64,10.0,Calm,Calm,-,N/A,,Overcast,0,2013-01-04 14:16:00
5:36 AM,28.4,26.6,93,29.65,10.0,Calm,Calm,-,N/A,,Overcast,0,2013-01-04 14:36:00
5:56 AM,28.4,26.6,93,29.66,8.0,Calm,Calm,-,N/A,,Overcast,0,2013-01-04 14:56:00
6:16 AM,28.4,26.6,93,29.66,10.0,Calm,Calm,-,N/A,,Overcast,0,2013-01-04 15:16:00
6:36 AM,28.4,26.6,93,29.66,10.0,Calm,Calm,-,N/A,,Overcast,0,2013-01-04 15:36:00
6:56 AM,28.4,26.6,93,29.67,10.0,Calm,Calm,-,N/A,,Overcast,0,2013-01-04 15:56:00
7:16 AM,28.4,26.6,93,29.67,10.0,ESE,3.5,-,N/A,,Overcast,110,2013-01-04 16:16:00
7:36 AM,26.6,24.8,93,29.68,10.0,Calm,Calm,-,N/A,,Mostly Cloudy,0,2013-01-04 16:36:00
7:56 AM,26.6,24.8,93,29.69,10.0,Calm,Calm,-,N/A,,Mostly Cloudy,0,2013-01-04 16:56:00
8:16 AM,26.6,24.8,93,29.70,10.0,Calm,Calm,-,N/A,,Overcast,0,2013-01-04 17:16:00
8:36 AM,26.6,24.8,93,29.71,10.0,Calm,Calm,-,N/A,,Overcast,0,2013-01-04 17:36:00
8:56 AM,26.6,24.8,93,29.72,10.0,East,3.5,-,N/A,,Overcast,80,2013-01-04 17:56:00
9:16 AM,26.6,24.8,93,29.73,10.0,ENE,3.5,-,N/A,,Overcast,70,2013-01-04 18:16:00
9:36 AM,26.6,24.8,93,29.73,10.0,Calm,Calm,-,N/A,,Overcast,0,2013-01-04 18:36:00
9:56 AM,24.8,23.0,93,29.74,10.0,East,3.5,-,N/A,,Mostly Cloudy,80,2013-01-04 18:56:00
10:16 AM,24.8,23.0,93,29.75,10.0,East,3.5,-,N/A,,Partly Cloudy,80,2013-01-04 19:16:00
10:36 AM,24.8,21.2,86,29.76,10.0,ENE,3.5,-,N/A,,Clear,70,2013-01-04 19:36:00
10:56 AM,23.0,21.2,93,29.76,10.0,ENE,3.5,-,N/A,,Clear,60,2013-01-04 19:56:00
11:16 AM,21.2,19.4,93,29.77,10.0,Calm,Calm,-,N/A,,Clear,0,2013-01-04 20:16:00
11:36 AM,21.2,19.4,93,29.78,10.0,Calm,Calm,-,N/A,,Clear,0,2013-01-04 20:36:00
11:56 AM,23.0,21.2,93,29.79,10.0,East,5.8,-,N/A,,Clear,80,2013-01-04 20:56:00
12:16 PM,24.8,23.0,93,29.78,10.0,East,3.5,-,N/A,,Clear,80,2013-01-04 21:16:00
12:36 PM,24.8,23.0,93,29.78,10.0,East,3.5,-,N/A,,Clear,80,2013-01-04 21:36:00
12:56 PM,26.6,24.8,93,29.79,10.0,East,3.5,-,N/A,,Clear,80,2013-01-04 21:56:00
1:16 PM,26.6,24.8,93,29.79,10.0,East,3.5,-,N/A,,Partly Cloudy,90,2013-01-04 22:16:00
1:36 PM,26.6,24.8,93,29.79,10.0,East,4.6,-,N/A,,Partly Cloudy,100,2013-01-04 22:36:00
1:56 PM,28.4,26.6,93,29.79,10.0,East,3.5,-,N/A,,Clear,90,2013-01-04 22:56:00
2:16 PM,28.4,26.6,93,29.79,10.0,East,4.6,-,N/A,,Clear,90,2013-01-04 23:16:00
2:36 PM,28.4,26.6,93,29.79,10.0,Calm,Calm,-,N/A,,Clear,0,2013-01-04 23:36:00
2:56 PM,26.6,24.8,93,29.79,10.0,East,3.5,-,N/A,,Clear,100,2013-01-04 23:56:00
3:16 PM,24.8,23.0,93,29.79,10.0,East,3.5,-,N/A,,Partly Cloudy,90,2013-01-05 00:16:00
3:36 PM,26.6,24.8,93,29.80,10.0,Calm,Calm,-,N/A,,Clear,0,2013-01-05 00:36:00
3:56 PM,24.8,23.0,93,29.80,10.0,East,3.5,-,N/A,,Clear,90,2013-01-05 00:56:00
4:16 PM,24.8,23.0,93,29.80,10.0,ESE,4.6,-,N/A,,Clear,120,2013-01-05 01:16:00
4:36 PM,24.8,21.2,86,29.79,10.0,Calm,Calm,-,N/A,,Partly Cloudy,0,2013-01-05 01:36:00
4:56 PM,24.8,21.2,86,29.79,10.0,Calm,Calm,-,N/A,,Partly Cloudy,0,2013-01-05 01:56:00
5:16 PM,24.8,21.2,86,29.79,10.0,East,4.6,-,N/A,,Mostly Cloudy,90,2013-01-05 02:16:00
5:36 PM,24.8,23.0,93,29.79,10.0,Calm,Calm,-,N/A,,Overcast,0,2013-01-05 02:36:00
5:56 PM,23.0,21.2,93,29.78,10.0,Calm,Calm,-,N/A,,Overcast,0,2013-01-05 02:56:00
6:16 PM,23.0,21.2,93,29.77,10.0,Calm,Calm,-,N/A,,Overcast,0,2013-01-05 03:16:00
6:36 PM,21.2,19.4,93,29.77,10.0,Calm,Calm,-,N/A,,Mostly Cloudy,0,2013-01-05 03:36:00
6:56 PM,19.4,15.8,86,29.77,10.0,Calm,Calm,-,N/A,,Partly Cloudy,0,2013-01-05 03:56:00
7:16 PM,19.4,15.8,86,29.76,10.0,East,3.5,-,N/A,,Clear,80,2013-01-05 04:16:00
7:36 PM,19.4,17.6,93,29.75,10.0,Calm,Calm,-,N/A,,Clear,0,2013-01-05 04:36:00
7:56 PM,19.4,15.8,86,29.75,10.0,Calm,Calm,-,N/A,,Clear,0,2013-01-05 04:56:00
8:16 PM,17.6,15.8,93,29.75,10.0,Calm,Calm,-,N/A,,Clear,0,2013-01-05 05:16:00
8:36 PM,15.8,12.2,86,29.74,10.0,Calm,Calm,-,N/A,,Clear,0,2013-01-05 05:36:00
8:56 PM,15.8,12.2,86,29.74,10.0,NE,3.5,-,N/A,,Mostly Cloudy,40,2013-01-05 05:56:00
9:16 PM,15.8,14.0,93,29.74,10.0,Calm,Calm,-,N/A,,Overcast,0,2013-01-05 06:16:00
9:36 PM,17.6,14.0,86,29.74,10.0,East,3.5,-,N/A,,Mostly Cloudy,80,2013-01-05 06:36:00
9:56 PM,21.2,21.2,100,29.73,10.0,ENE,4.6,-,N/A,,Mostly Cloudy,70,2013-01-05 06:56:00
10:16 PM,21.2,19.4,93,29.73,10.0,East,3.5,-,N/A,,Overcast,90,2013-01-05 07:16:00
10:36 PM,21.2,19.4,93,29.72,10.0,Calm,Calm,-,N/A,,Overcast,0,2013-01-05 07:36:00
10:56 PM,21.2,21.2,100,29.72,10.0,East,3.5,-,N/A,,Overcast,100,2013-01-05 07:56:00
11:16 PM,23.0,21.2,93,29.72,10.0,ENE,3.5,-,N/A,,Overcast,70,2013-01-05 08:16:00
11:36 PM,21.2,19.4,93,29.71,10.0,Calm,Calm,-,N/A,,Mostly Cloudy,0,2013-01-05 08:36:00
11:56 PM,23.0,19.4,86,29.70,10.0,Calm,Calm,-,N/A,,Overcast,0,2013-01-05 08:56:00